{"data":{"norad_id":57181,"epoch":"2026-09-21T22:31:08.378688Z","epoch_age_seconds":80851,"freshness":"FRESH","line1":"1 57181U 23091R   26264.93829142  .00001603  00000+0  89310-4 0  9999","line2":"2 57181  97.4964 317.5820 0015492 157.4021 202.7897 15.14955252178336","mean_motion":15.14955252,"eccentricity":0.0015492,"inclination_deg":97.4964,"raan_deg":317.582,"arg_perigee_deg":157.4021,"mean_anomaly_deg":202.7897,"bstar":8.931e-5,"rev_number":17833,"period_min":95.052312475828,"perigee_km":510.42609418851,"apogee_km":531.80273477113,"semimajor_km":6899.2514144798,"source":"CELESTRAK","updated_at":"2026-09-22T09:00:26.076531Z"}}